Weather Service Report


339 
ASUS44 KBMX 210810
RWRAL 
             
ALABAMA REGIONAL WEATHER ROUNDUP
NATIONAL WEATHER SERVICE BIRMINGHAM AL
300 AM CDT TUE APR 21 2015

NOTE: "FAIR" INDICATES FEW OR NO CLOUDS BELOW 12,000 FEET
WITH NO SIGNIFICANT WEATHER AND/OR OBSTRUCTIONS TO VISIBILITY.

THE REMARK "TC" DENOTES TEMPERATURE IN DEGREES CELSIUS.

ALZ001>011-014-016>018-020-210900-
NORTH ALABAMA
  
CITY           SKY/WX    TMP DP  RH WIND       PRES   REMARKS
MUSCLE SHOALS  CLEAR     46  41  82 CALM      29.96S                  
HUNTSVILLE     CLEAR     49  45  86 CALM      29.94S                  
DECATUR        CLEAR     47  46  97 NW3       29.94F                  
HALEYVILLE       N/A     42  42 100 CALM      29.97S                  
GADSDEN        CLEAR     46  41  81 CALM      29.93S                  
$$
 
ALZ012-013-022-023-030>036-040>044-210900-
WEST CENTRAL ALABAMA
  
CITY           SKY/WX    TMP DP  RH WIND       PRES   REMARKS
TUSCALOOSA     CLEAR     49  47  93 CALM      29.96F                  
$$
 
ALZ015-024>027-033>036-040>044-210900-
CENTRAL ALABAMA
  
CITY           SKY/WX    TMP DP  RH WIND       PRES   REMARKS
BIRMINGHAM     CLEAR     51  45  79 NW3       29.96F                  
MONTGOMERY     MOCLDY    55  47  74 NW5       29.95S                  
SHELBY CO ARPT CLEAR     52  45  77 CALM      29.94F                  
MAXWELL AFB    PTCLDY    55  47  75 NW3       29.94S                  
GREENVILLE     FAIR      55  48  77 CALM      29.94S                  
$$
 
ALZ019-021-028-029-037-038-045>048-210900-
EAST CENTRAL ALABAMA
  
CITY           SKY/WX    TMP DP  RH WIND       PRES   REMARKS
ANNISTON       CLEAR     50  46  86 CALM      29.94S                  
ALEXANDER CITY CLEAR     52  46  82 CALM      29.94S                  
AUBURN         CLEAR     52  45  76 N6        29.95S                  
$$
 
ALZ051>064-210900-
SOUTHWEST ALABAMA
  
CITY           SKY/WX    TMP DP  RH WIND       PRES   REMARKS
MOBILE         CLEAR     54  50  86 N3        29.97                   
BROOKLEY FIELD CLEAR     56  51  84 NW5       29.98R                  
EVERGREEN      CLEAR     52  50  93 CALM      29.96S                  
$$

ALZ049-050-065>069-210900-
SOUTHEAST ALABAMA
  
CITY           SKY/WX    TMP DP  RH WIND       PRES   REMARKS
DOTHAN         CLEAR     57  53  86 NW6       29.96S                  
OZARK          CLEAR     56  49  76 NW5       29.93S                  
TROY           PTCLDY    55  49  80 NW5       29.95R                  
EUFAULA        FAIR      53  50  89 CALM      29.93R                  
$$

Return to Home page


Western Regional Climate Center, wrcc@dri.edu